DW8500 Weather Reports


Display with metric or nautical units.
time (UTC)temp
F
wind
direction
speed
MPH
gust
MPH
rain 1hr
in
rain 24hr
in
rain mn
in
humidity
%
barometer
mb
20260503001238 45 270 0.0 1.0 0.02 0.43 0.43 63 1010.8
20260503000738 46 270 0.0 1.0 0.02 0.43 0.43 63 1010.6
20260503000235 46 270 0.0 1.0 0.02 0.43 0.43 63 1010.6
20260502235759 46 270 0.0 1.0 0.02 0.43 0.43 63 1010.6
20260502235235 46 270 0.0 2.0 0.02 0.43 0.43 63 1010.5
20260502234756 46 270 1.0 3.0 0.02 0.43 0.43 63 1010.5
20260502234232 46 269 1.0 2.0 0.02 0.43 0.43 63 1010.4
20260502233746 46 113 0.0 2.0 0.02 0.43 0.43 62 1010.3
20260502233242 46 102 0.0 1.0 0.01 0.42 0.42 60 1010.4
20260502233007 46 107 0.0 1.0 0.01 0.42 0.42 60 1010.6
20260502232802 46 102 1.0 2.0 0.01 0.42 0.42 59 1010.5
20260502232237 47 24 0.0 2.0 0.02 0.42 0.42 61 1010.7
20260502231755 47 285 0.0 2.0 0.02 0.42 0.42 62 1010.7
20260502231515 46 41 0.0 2.0 0.01 0.41 0.41 62 1010.9
20260502231250 47 283 0.0 2.0 0.01 0.41 0.41 62 1010.6
20260502230247 47 73 0.0 1.0 0.01 0.41 0.41 62 1010.5
20260502230004 47 43 0.0 1.0 0.01 0.41 0.41 62 1010.6
20260502225803 47 44 0.0 1.0 0.01 0.41 0.41 62 1010.4
20260502225239 48 43 0.0 1.0 0.01 0.41 0.41 62 1010.4
20260502224739 48 44 0.0 1.0 0.01 0.41 0.41 62 1010.4
20260502224238 48 1 0.0 1.0 0.01 0.41 0.41 61 1010.4
20260502223735 48 246 0.0 2.0 0.03 0.41 0.41 61 1010.4
20260502223234 48 231 1.0 3.0 0.03 0.41 0.41 62 1010.3
20260502222736 49 51 1.0 3.0 0.04 0.41 0.41 63 1010.3
20260502222253 49 255 0.0 1.0 0.04 0.40 0.40 63 1010.2
20260502221752 49 129 0.0 1.0 0.04 0.40 0.40 63 1010.1
20260502221248 49 129 0.0 0.0 0.04 0.40 0.40 63 1009.9
20260502220747 49 129 0.0 0.0 0.04 0.40 0.40 63 1010.0
20260502220243 49 129 0.0 1.0 0.04 0.40 0.40 63 1010.0
20260502220020 49 129 0.0 1.0 0.04 0.40 0.40 62 1010.0
20260502215309 49 129 0.0 1.0 0.04 0.40 0.40 62 1010.0
20260502214747 49 129 0.0 1.0 0.04 0.40 0.40 62 1009.8
20260502214245 49 129 0.0 1.0 0.04 0.40 0.40 61 1009.8
20260502213744 50 129 0.0 1.0 0.02 0.38 0.38 62 1009.8
20260502213243 50 129 0.0 1.0 0.02 0.38 0.38 62 1009.9
20260502212741 50 129 0.0 0.0 0.01 0.37 0.37 61 1009.8
20260502212239 50 129 0.0 0.0 0.00 0.36 0.36 62 1009.9
20260502211740 50 129 0.0 0.0 0.00 0.36 0.36 61 1009.9
20260502211236 50 129 0.0 0.0 0.00 0.36 0.36 61 1009.9
20260502210811 50 129 0.0 1.0 0.00 0.36 0.36 61 1009.9
20260502210248 50 129 0.0 1.0 0.00 0.36 0.36 60 1009.8
20260502205747 50 129 0.0 0.0 0.00 0.36 0.36 60 1009.8
20260502205244 50 129 0.0 1.0 0.00 0.36 0.36 60 1009.9
20260502204742 50 129 0.0 1.0 0.00 0.36 0.36 60 1010.0
20260502204502 50 129 0.0 1.0 0.00 0.36 0.36 60 1010.1
20260502204300 50 129 0.0 1.0 0.00 0.36 0.36 60 1009.8
20260502203742 50 129 0.0 1.0 0.00 0.36 0.36 60 1010.0
20260502203238 50 129 0.0 1.0 0.00 0.36 0.36 61 1009.9
20260502202758 50 129 0.0 1.0 0.00 0.36 0.36 61 1009.9
20260502202312 50 129 0.0 1.0 0.00 0.36 0.36 61 1010.0
20260502201748 50 129 0.0 1.0 0.00 0.36 0.36 61 1010.0
20260502201511 50 129 0.0 1.0 0.00 0.36 0.36 61 1010.1
20260502201305 50 129 0.0 1.0 0.00 0.36 0.36 61 1010.0
20260502200744 50 124 0.0 1.0 0.00 0.36 0.36 61 1010.1
20260502200238 50 265 0.0 1.0 0.00 0.36 0.36 58 1010.1
20260502195738 50 265 0.0 0.0 0.00 0.36 0.36 59 1010.2
20260502195235 50 265 0.0 0.0 0.00 0.36 0.36 58 1010.2
20260502194755 50 265 0.0 1.0 0.00 0.36 0.36 58 1010.2
20260502194251 49 265 0.0 2.0 0.00 0.36 0.36 57 1010.2
20260502193751 49 266 0.0 2.0 0.01 0.36 0.36 57 1010.4
20260502193247 49 202 1.0 2.0 0.02 0.36 0.36 57 1010.4
20260502192744 50 257 0.0 1.0 0.02 0.36 0.36 61 1010.4
20260502192241 49 257 1.0 1.0 0.02 0.36 0.36 61 1010.6
20260502191739 49 263 0.0 1.0 0.02 0.36 0.36 61 1010.4
20260502191336 49 263 0.0 1.0 0.03 0.36 0.36 61 1010.4
20260502190750 49 262 0.0 1.0 0.04 0.36 0.36 61 1010.4
20260502190247 49 261 0.0 1.0 0.05 0.36 0.36 61 1010.5
20260502185748 49 260 0.0 1.0 0.06 0.36 0.36 61 1010.5
20260502185244 49 260 0.0 2.0 0.08 0.36 0.36 61 1010.5
20260502184746 49 210 0.0 1.0 0.11 0.36 0.36 62 1010.7
20260502184240 49 190 0.0 0.0 0.14 0.36 0.36 61 1010.8
20260502183741 48 190 0.0 0.0 0.17 0.35 0.35 60 1010.8
20260502183236 48 190 0.0 0.0 0.17 0.34 0.34 59 1010.9
20260502182737 48 188 0.0 1.0 0.18 0.34 0.34 60 1011.0
20260502182234 48 188 0.0 1.0 0.19 0.34 0.34 59 1011.0
20260502181736 48 238 0.0 2.0 0.19 0.34 0.34 59 1011.1
20260502181235 48 238 0.0 2.0 0.18 0.33 0.33 58 1011.1
20260502180753 48 218 0.0 2.0 0.17 0.32 0.32 58 1011.2
20260502180248 48 241 0.0 2.0 0.17 0.31 0.31 58 1011.2
20260502180202 48 241 0.0 2.0 0.17 0.31 0.31 58 1011.3
20260502170234 52 122 0.0 4.0 0.00 0.14 0.14 60 1010.6
20260502164253 52 127 1.0 4.0 0.00 0.14 0.14 58 1010.7
20260502163733 53 112 2.0 4.0 0.00 0.14 0.14 56 1010.8
20260502163312 53 105 0.0 2.0 0.00 0.14 0.14 57 1010.8
20260502162750 53 80 0.0 2.0 0.00 0.14 0.14 57 1010.9
20260502162307 53 110 1.0 2.0 0.00 0.14 0.14 56 1010.9
20260502161746 53 210 0.0 3.0 0.00 0.14 0.14 58 1011.0
20260502161241 53 108 0.0 3.0 0.00 0.14 0.14 58 1011.0
20260502160758 53 122 1.0 4.0 0.00 0.14 0.14 58 1011.1
20260502160234 52 299 2.0 4.0 0.00 0.14 0.14 56 1011.1
20260502152238 51 133 0.0 2.0 0.00 0.14 0.14 60 1011.5
20260502151300 50 138 0.0 1.0 0.00 0.14 0.14 60 1011.7
20260502150758 50 151 0.0 0.0 0.00 0.14 0.14 60 1011.7
20260502150256 50 185 0.0 0.0 0.00 0.14 0.14 60 1011.8
20260502130749 46 128 0.0 1.0 0.01 0.14 0.14 63 1012.3
20260502130245 46 124 0.0 1.0 0.01 0.14 0.14 63 1012.1
20260502123806 45 255 0.0 1.0 0.03 0.14 0.14 64 1012.6
20260502123243 45 255 0.0 1.0 0.04 0.13 0.13 64 1012.6
20260502122743 45 255 1.0 1.0 0.06 0.13 0.13 64 1012.6
20260502122240 45 258 0.0 0.0 0.08 0.13 0.13 64 1012.5
20260502121738 45 258 0.0 1.0 0.08 0.13 0.13 64 1012.4
20260502121236 45 258 0.0 1.0 0.08 0.13 0.13 64 1012.4
20260502120738 45 258 0.0 0.0 0.09 0.13 0.13 64 1012.3
20260502120233 44 258 0.0 1.0 0.09 0.13 0.13 64 1012.3
20260502115735 44 258 0.0 1.0 0.09 0.13 0.13 64 1012.2
20260502115252 44 259 0.0 0.0 0.09 0.13 0.13 64 1012.3
20260502114752 44 258 0.0 1.0 0.09 0.13 0.13 63 1012.4
20260502114508 43 258 0.0 1.0 0.08 0.12 0.12 63 1012.5
20260502114308 44 258 0.0 1.0 0.08 0.12 0.12 63 1012.4
20260502113826 44 236 0.0 1.0 0.07 0.11 0.11 63 1012.5
20260502113254 44 145 0.0 4.0 0.05 0.09 0.09 63 1012.6
20260502112752 44 234 1.0 4.0 0.03 0.07 0.07 63 1012.6
20260502112247 44 233 1.0 2.0 0.01 0.05 0.05 63 1012.5
20260502111746 44 226 0.0 2.0 0.01 0.05 0.05 63 1012.3
20260502111659 44 226 0.0 2.0 0.01 0.05 0.05 63 1012.5
20260502111244 44 164 0.0 2.0 0.01 0.05 0.05 63 1012.2
20260502110803 44 230 0.0 1.0 0.00 0.04 0.04 63 1011.9
20260502110238 44 138 0.0 1.0 0.00 0.04 0.04 63 1011.7
20260502105740 44 88 0.0 0.0 0.01 0.04 0.04 62 1011.6
20260502105236 44 88 0.0 1.0 0.01 0.04 0.04 62 1011.6
20260502104736 44 88 0.0 1.0 0.02 0.04 0.04 61 1011.6
20260502104249 44 88 0.0 0.0 0.03 0.04 0.04 61 1011.6
20260502103807 44 88 0.0 1.0 0.03 0.04 0.04 61 1011.4
20260502103243 44 88 0.0 1.0 0.04 0.04 0.04 60 1011.5
20260502103159 43 87 0.0 1.0 0.04 0.04 0.04 60 1011.7
20260502102740 44 88 0.0 2.0 0.04 0.04 0.04 58 1011.4
20260502102237 44 84 0.0 2.0 0.04 0.04 0.04 58 1011.7
20260502101838 44 136 0.0 1.0 0.04 0.04 0.04 58 1011.7
20260502101250 44 136 0.0 1.0 0.04 0.04 0.04 57 1011.7
20260502100808 44 136 0.0 2.0 0.04 0.04 0.04 57 1011.8
20260502100300 44 261 1.0 2.0 0.04 0.04 0.04 56 1011.7
20260502091236 44 113 0.0 1.0 0.00 0.00 0.00 59 1011.0
20260502090737 45 113 0.0 0.0 0.00 0.00 0.00 60 1011.0
20260502090235 45 113 0.0 0.0 0.00 0.00 0.00 60 1011.1
20260502071234 48 288 0.0 1.0 0.00 0.00 0.00 54 1011.5
20260502070732 48 259 0.0 2.0 0.00 0.00 0.00 54 1011.5
20260502070256 48 262 0.0 2.0 0.00 0.00 0.00 52 1011.6
20260502065736 48 277 0.0 2.0 0.00 0.00 0.00 52 1011.8
20260502065235 49 281 0.0 2.0 0.00 0.00 0.00 51 1011.9
20260502064731 48 316 1.0 3.0 0.00 0.00 0.00 52 1011.8
20260502064249 48 300 2.0 3.0 0.00 0.00 0.00 52 1011.9
20260502063748 49 272 1.0 2.0 0.00 0.00 0.00 51 1011.9
20260502063245 49 312 0.0 4.0 0.00 0.00 0.00 48 1011.8
20260502063159 49 312 0.0 4.0 0.00 0.00 0.00 49 1012.0
20260502062744 49 311 0.0 4.0 0.00 0.00 0.00 47 1011.8
20260502062241 48 296 1.0 4.0 0.00 0.00 0.00 48 1011.9
20260502061743 48 265 1.0 4.0 0.00 0.00 0.00 47 1011.9
20260502061240 48 302 1.0 2.0 0.00 0.00 0.00 47 1011.8
20260502060819 48 339 0.0 2.0 0.00 0.00 0.00 46 1011.9
20260502060232 48 282 0.0 2.0 0.00 0.00 0.00 48 1011.9
20260502055748 48 269 0.0 2.0 0.00 0.00 0.00 50 1011.9
20260502054756 47 272 0.0 0.0 0.00 0.00 0.00 42 1011.8
20260502054233 47 272 0.0 0.0 0.00 0.00 0.00 47 1011.9
20260502053733 46 272 0.0 0.0 0.00 0.00 0.00 48 1011.9
20260502053250 46 272 0.0 0.0 0.00 0.00 0.00 50 1011.8
20260502052749 46 272 0.0 0.0 0.00 0.00 0.00 52 1011.7
20260502052246 46 274 0.0 0.0 0.00 0.00 0.00 50 1011.6
20260502051806 45 274 0.0 0.0 0.00 0.00 0.00 53 1011.5
20260502051241 45 274 0.0 0.0 0.00 0.00 0.00 53 1011.5
20260502050738 45 274 0.0 0.0 0.00 0.00 0.00 56 1011.4
20260502050236 45 274 0.0 0.0 0.00 0.00 0.00 58 1011.6
20260502045736 45 274 0.0 0.0 0.00 0.00 0.00 59 1011.6
20260502045253 45 274 0.0 0.0 0.00 0.00 0.00 59 1011.5
20260502044751 45 274 0.0 0.0 0.00 0.00 0.00 57 1011.6
20260502044247 45 274 0.0 0.0 0.00 0.00 0.00 57 1011.7
20260502043746 45 274 0.0 0.0 0.00 0.00 0.00 58 1011.7
20260502043243 45 274 0.0 0.0 0.00 0.00 0.00 57 1011.8
20260502043159 45 274 0.0 0.0 0.00 0.00 0.00 56 1012.0
20260502042743 45 274 0.0 0.0 0.00 0.00 0.00 59 1011.8
20260502042236 45 274 0.0 0.0 0.00 0.00 0.00 58 1011.8
20260502041737 45 274 0.0 0.0 0.00 0.00 0.00 57 1011.8
20260502041235 46 274 0.0 0.0 0.00 0.00 0.00 56 1011.7
20260502040753 46 274 0.0 0.0 0.00 0.00 0.00 56 1011.6
20260502040252 46 274 0.0 0.0 0.00 0.00 0.00 56 1011.5
20260502035750 46 274 0.0 0.0 0.00 0.00 0.00 53 1011.4
20260502035306 46 274 0.0 0.0 0.00 0.00 0.00 54 1011.5
20260502034745 46 274 0.0 0.0 0.00 0.00 0.00 55 1011.4
20260502034241 47 274 0.0 0.0 0.00 0.00 0.00 55 1011.5
20260502033741 47 274 0.0 0.0 0.00 0.00 0.00 53 1011.5
20260502033236 47 274 0.0 0.0 0.00 0.00 0.00 50 1011.4
20260502032734 46 274 0.0 0.0 0.00 0.00 0.00 49 1011.4
20260502032235 46 274 0.0 0.0 0.00 0.00 0.00 51 1011.4
20260502031731 46 274 0.0 0.0 0.00 0.00 0.00 51 1011.4
20260502031328 46 274 0.0 0.0 0.00 0.00 0.00 51 1011.4
20260502030743 46 274 0.0 0.0 0.00 0.00 0.00 55 1011.3
20260502030239 46 274 0.0 0.0 0.00 0.00 0.00 53 1011.3
20260502025306 46 275 0.0 0.0 0.00 0.00 0.00 51 1011.3
20260502024744 47 275 0.0 0.0 0.00 0.00 0.00 48 1011.2
20260502024240 46 275 0.0 0.0 0.00 0.00 0.00 47 1011.3
20260502023741 46 275 0.0 0.0 0.00 0.00 0.00 49 1011.3
20260502023254 46 275 0.0 0.0 0.00 0.00 0.00 51 1011.4
20260502022734 46 275 0.0 0.0 0.00 0.00 0.00 48 1011.4
20260502022252 46 275 0.0 0.0 0.00 0.00 0.00 49 1011.4
20260502021751 46 275 0.0 0.0 0.00 0.00 0.00 45 1011.4
20260502021247 46 275 0.0 0.0 0.00 0.00 0.00 45 1011.4
20260502020757 46 275 0.0 0.0 0.00 0.00 0.00 46 1011.6
20260502020301 46 275 0.0 0.0 0.00 0.00 0.00 49 1011.5
20260502015737 46 275 0.0 0.0 0.00 0.00 0.00 45 1011.4
20260502015234 46 275 0.0 0.0 0.00 0.00 0.00 45 1011.4
20260502014734 47 275 0.0 0.0 0.00 0.00 0.00 43 1011.4
20260502014232 47 275 0.0 0.0 0.00 0.00 0.00 41 1011.6
20260502013732 47 275 0.0 0.0 0.00 0.00 0.00 40 1011.5
20260502013250 47 275 0.0 0.0 0.00 0.00 0.00 41 1011.5
20260502012748 47 275 0.0 0.0 0.00 0.00 0.00 40 1011.5
20260502012245 47 275 0.0 0.0 0.00 0.00 0.00 39 1011.4
20260502011743 48 275 0.0 0.0 0.00 0.00 0.00 39 1011.4
20260502010748 48 275 0.0 0.0 0.00 0.00 0.00 41 1011.3
20260502010244 48 275 0.0 0.0 0.00 0.00 0.00 40 1011.2
20260502010155 47 275 0.0 0.0 0.00 0.00 0.00 39 1011.4
20260502005739 48 275 0.0 0.0 0.00 0.00 0.00 41 1011.1
20260502005235 49 275 0.0 1.0 0.00 0.00 0.00 41 1011.1
20260502004735 49 275 0.0 1.0 0.00 0.00 0.00 39 1011.0
20260502004250 49 275 0.0 1.0 0.00 0.00 0.00 38 1011.0
20260502003749 49 275 0.0 1.0 0.00 0.00 0.00 38 1011.0
20260502003247 50 275 0.0 1.0 0.00 0.00 0.00 39 1010.9
20260502002746 50 275 0.0 0.0 0.00 0.00 0.00 37 1010.9
20260502002242 50 275 0.0 0.0 0.00 0.00 0.00 37 1010.8
20260502001745 51 275 0.0 0.0 0.00 0.00 0.00 36 1010.7
20260502001700 50 275 0.0 0.0 0.00 0.00 0.00 36 1010.9